RH
20 21 22 22 22 22 21 21 20 18 12 6 4 3 3 3 4 3 3 3 3 4 7 12 15 18 25 48 75 84 94 87 70 80 94 82 77 63 74 74 85 100 99 81 66
21 21 22 23 23 22 22 22 20 17 10 6 4 3 3 4 5 3 3 3 3 4 8 14 15 22 35 69 80 85 87 84 73 72 72 91 91 67 72 85 90 95 99 89 87
21 21 23 25 25 23 23 20 20 17 10 6 4 3 4 4 7 3 3 3 3 4 8 17 25 35 31 55 73 94 82 76 69 80 71 91 86 90 75 62 86 91 98 100 99
24 19 18 19 23 26 23 22 22 19 12 6 4 3 5 4 4 3 3 3 3 3 8 20 31 32 36 48 70 82 72 74 76 73 75 73 76 72 74 55 59 77 92 100 99
33 26 20 21 26 28 26 24 24 20 14 7 4 4 6 5 4 3 3 3 2 3 12 25 34 36 46 60 67 72 76 85 88 74 85 80 60 59 53 59 69 76 90 98 100
39 35 22 21 25 28 26 25 24 20 14 7 5 4 7 5 3 3 3 3 2 3 14 30 37 48 58 66 80 76 84 88 93 85 68 58 36 51 32 43 51 69 78 97 98
44 39 21 24 28 29 27 27 26 22 15 8 5 5 7 5 4 4 3 2 2 3 13 38 45 72 70 62 68 74 76 79 86 70 66 85 59 44 32 36 30 57 95 84 99
48 41 23 26 31 30 27 28 27 22 15 8 5 6 7 5 4 5 3 2 3 8 25 49 72 74 80 71 66 62 64 72 77 92 86 98 52 75 91 83 35 48 73 81 92
50 43 27 27 33 32 27 28 25 21 14 9 6 8 8 5 4 4 3 2 3 10 26 74 80 78 65 76 64 68 82 69 67 84 79 82 54 83 96 92 75 76 79 89 85
53 46 30 23 34 30 30 28 23 19 13 9 6 8 7 4 5 3 3 3 6 29 47 79 91 68 58 89 92 92 81 80 76 75 84 79 72 69 76 93 88 85 94 99 86
55 49 33 24 34 30 30 28 20 16 11 8 6 7 5 4 5 3 3 3 7 20 55 78 86 61 85 90 92 81 94 84 62 93 79 73 74 79 85 96 100 99 99 95 78
57 46 30 27 37 33 32 28 24 16 10 8 6 7 6 4 6 4 3 3 5 21 67 71 71 60 76 90 83 69 80 82 49 67 70 72 81 99 97 98 99 100 100 83 60
59 48 30 32 32 37 32 30 22 13 10 8 7 7 6 5 5 4 4 3 6 22 78 73 59 61 67 66 73 69 86 96 97 66 95 92 86 98 98 98 98 99 98 92 70
63 55 34 34 35 38 33 29 17 13 19 10 8 10 6 5 6 5 4 4 8 20 42 55 58 72 58 74 90 78 84 94 90 86 94 90 98 87 97 98 98 100 100 100 97
65 51 33 39 44 36 34 26 15 17 44 12 8 8 7 5 7 5 9 6 10 28 51 65 68 66 62 78 90 88 77 71 72 81 93 94 96 95 96 96 96 98 99 100 100
65 54 35 37 44 36 33 18 15 23 23 11 8 7 6 5 5 7 10 6 11 21 65 64 66 69 84 68 87 78 50 64 72 89 98 98 96 99 88 93 97 98 98 98 99
66 58 38 38 43 39 29 15 12 8 9 8 7 8 7 6 6 8 16 12 21 20 36 50 62 64 65 42 59 71 60 83 80 90 97 98 89 97 97 97 96 96 98 99 100
66 52 38 40 48 39 22 12 8 8 6 7 7 8 7 8 8 11 17 32 45 49 67 74 64 80 71 98 96 81 91 97 99 95 95 80 97 96 97 97 97 98 98 98 99
64 51 35 44 47 35 16 10 6 6 6 7 8 8 7 6 8 13 25 41 68 60 68 74 64 67 73 96 74 71 74 99 97 95 96 96 93 99 92 97 98 97 98 98 100
61 48 40 50 44 29 11 9 6 6 6 7 7 8 7 7 9 17 28 39 66 69 71 81 75 74 70 61 59 78 76 83 87 94 95 98 96 96 90 92 96 97 98 98 99
59 44 45 53 41 22 10 7 6 6 7 8 8 8 8 8 12 26 37 54 63 66 64 72 81 63 84 98 89 74 86 91 96 97 96 94 95 97 96 95 95 96 98 96 98
56 58 53 49 37 18 6 7 7 6 7 8 8 8 8 8 13 14 37 54 68 68 64 66 83 73 92 100 99 76 90 98 97 93 95 96 96 97 97 96 96 96 97 99 97
51 59 51 46 30 14 6 6 6 7 7 8 9 9 8 8 13 13 22 52 63 68 62 64 74 77 56 76 73 84 83 90 95 97 95 96 97 97 97 97 95 96 97 97 98
57 64 54 48 35 9 6 7 6 7 8 9 9 10 9 8 9 12 20 45 51 67 69 64 78 96 96 88 95 100 94 81 87 89 96 96 94 92 94 94 96 96 96 97 98
59 66 63 52 35 9 5 6 6 7 8 9 11 11 10 10 9 11 23 41 46 65 65 60 67 75 80 77 93 100 97 79 88 96 96 94 96 96 95 95 96 97 96 97 98
61 75 73 62 24 8 6 6 7 7 9 10 12 12 12 12 9 11 19 38 46 62 61 62 58 64 89 98 100 100 94 78 82 82 87 90 95 97 95 96 96 96 97 97 98
64 74 79 53 25 7 6 6 7 7 9 11 13 14 13 12 10 13 22 38 51 60 61 59 56 73 100 92 94 88 80 82 92 90 93 87 90 90 96 95 95 96 96 97 97
Wind_Speed
21 22 23 24 26 28 31 34 36 36 33 27 23 23 25 29 28 28 33 33 33 31 28 25 24 21 20 16 9 14 21 26 25 24 17 15 21 26 22 29 34 33 23 25 34
22 24 25 25 27 29 32 33 35 36 33 27 23 23 25 29 25 32 33 31 31 29 27 26 25 22 20 14 14 19 22 27 24 24 27 26 22 22 22 21 32 35 24 27 31
23 24 25 26 28 30 31 33 34 35 32 27 22 22 24 28 24 33 31 30 29 28 25 23 23 21 23 20 13 15 21 22 24 21 22 24 21 21 25 26 25 31 32 29 23
24 25 26 26 27 29 32 34 34 34 32 26 22 22 24 27 21 32 26 30 29 26 23 22 21 21 24 20 17 23 23 22 23 21 21 24 28 20 16 23 21 33 30 25 24
24 27 27 27 28 29 32 33 34 34 31 25 21 23 25 29 31 31 32 31 30 26 20 19 21 21 23 24 20 17 19 21 19 21 23 26 30 28 19 9 9 18 30 28 24
24 27 27 27 27 29 31 33 34 33 29 22 20 22 25 29 34 29 33 36 34 26 18 19 18 17 19 21 19 30 29 25 26 21 18 22 24 24 22 21 16 15 23 22 30
22 26 28 28 27 29 32 34 36 34 28 22 18 23 25 32 38 33 36 34 34 25 16 12 13 14 21 21 25 27 25 19 23 7 4 6 14 22 13 17 16 11 13 27 10
23 26 27 27 27 30 33 35 35 32 27 18 19 22 25 34 35 31 36 29 25 17 9 12 13 12 18 24 25 21 12 24 22 16 14 8 13 2 9 5 9 13 12 21 25
23 25 26 27 28 31 34 35 34 30 26 17 21 18 27 31 25 31 36 34 26 16 10 15 16 17 22 20 19 22 24 21 21 17 24 8 8 4 9 9 8 12 15 17 23
23 25 25 27 28 31 33 34 33 27 22 14 21 18 28 35 30 34 29 28 20 12 9 11 11 19 14 21 19 25 28 23 22 17 21 4 11 11 14 9 6 10 14 12 15
21 24 25 26 27 30 32 32 32 24 18 13 21 26 31 31 30 34 36 29 17 12 8 2 10 23 17 19 14 17 16 15 13 9 17 13 14 10 12 8 10 12 14 11 19
21 24 25 25 26 29 32 32 30 22 10 12 25 26 31 36 32 37 35 33 22 17 4 4 9 22 13 13 13 14 15 19 12 10 15 7 8 3 5 7 5 9 9 10 16
20 23 24 26 25 27 31 32 30 22 5 15 27 27 33 35 34 37 37 33 23 14 7 8 15 20 17 19 18 13 14 24 21 20 5 8 6 5 8 2 11 8 5 13 18
20 23 24 25 26 30 31 31 27 17 2 17 28 30 31 33 27 34 35 27 22 16 7 7 16 25 27 15 19 15 23 19 16 12 6 18 2 23 14 4 8 0 3 11 16
21 22 23 24 27 29 30 28 21 9 4 18 24 26 27 31 30 30 34 21 19 18 14 11 22 27 31 21 16 17 24 17 9 4 12 9 5 26 12 9 8 13 2 13 13
20 22 23 23 25 28 27 23 13 5 3 12 20 23 23 27 27 28 32 33 20 16 8 6 13 17 28 13 12 22 18 10 3 4 1 12 6 23 26 25 14 9 11 13 13
19 21 23 23 26 28 24 18 5 8 13 13 21 23 25 28 24 29 30 37 35 22 23 11 10 17 28 18 12 28 27 8 5 4 2 1 12 13 27 18 14 14 14 4 22
18 20 21 22 24 25 20 13 4 8 10 14 17 16 21 28 18 23 22 35 34 28 12 18 11 24 26 19 21 22 18 5 2 4 4 9 6 4 28 19 13 13 10 6 16
17 18 18 20 22 21 16 6 5 7 10 13 15 13 15 19 14 15 19 27 27 28 15 17 6 15 16 15 21 18 27 7 4 10 4 4 14 9 29 24 11 10 8 4 16
17 16 16 18 19 16 13 8 6 8 10 13 12 13 16 20 15 15 20 16 22 23 19 18 8 15 17 14 23 18 20 6 9 5 4 4 7 19 36 32 23 16 16 8 17
17 16 14 16 16 13 10 7 7 9 11 11 11 11 14 16 12 12 15 12 17 20 19 22 10 11 9 18 28 28 26 13 7 4 3 3 4 25 26 25 27 23 17 13 18
14 15 15 13 13 12 9 8 7 8 9 10 9 12 12 13 7 11 13 13 15 19 20 21 10 10 11 3 13 24 29 22 5 7 11 5 1 22 23 21 23 24 14 11 13
12 14 10 12 7 11 8 6 7 7 8 9 8 11 12 11 7 9 11 12 13 14 18 17 10 9 8 2 7 20 27 21 7 8 14 5 5 24 19 17 22 25 15 10 12
12 9 11 11 10 9 8 6 6 7 6 8 7 10 12 10 11 8 10 9 12 10 16 15 9 7 4 13 14 16 22 23 14 7 11 7 16 27 23 22 23 26 19 11 13
13 10 10 12 11 7 7 6 5 5 5 7 8 10 11 9 10 11 11 10 10 10 15 13 7 16 10 4 5 11 16 22 14 15 7 13 16 25 25 23 25 24 20 12 11
13 11 13 12 8 6 6 5 4 5 5 7 9 10 10 11 12 13 12 12 6 11 13 13 12 14 5 3 7 7 13 13 11 10 7 10 12 21 21 19 17 20 21 17 13
12 13 14 10 8 6 4 4 3 4 4 7 8 8 9 12 12 12 10 9 9 11 12 13 16 11 2 8 9 1 20 19 14 11 12 16 21 21 18 17 18 20 21 18 14
Wind_Direction
9 6 4 2 360 358 355 352 351 355 354 355 357 358 358 356 354 354 356 351 348 341 335 333 337 336 336 340 324 303 274 281 292 278 284 282 279 257 270 274 252 228 203 183 169
4 4 4 4 358 356 354 353 355 356 356 355 357 358 0 357 350 354 353 350 340 333 332 334 339 337 337 336 317 299 283 277 298 292 277 295 280 269 265 268 263 243 210 176 177
3 4 3 0 357 356 355 355 356 357 357 354 357 358 2 357 351 354 350 343 337 332 327 335 337 334 334 330 305 296 286 296 291 292 273 286 272 269 268 265 270 270 233 169 179
1 1 359 358 356 357 356 356 356 355 355 353 355 357 359 358 6 350 345 342 338 333 329 333 340 339 339 331 309 289 296 295 289 281 286 277 275 264 260 266 282 277 242 214 170
0 358 358 357 356 355 354 354 355 355 354 354 354 356 356 355 358 350 346 342 337 334 332 340 343 344 347 341 339 336 330 321 303 272 263 265 264 269 266 256 277 269 258 216 189
358 356 356 355 353 353 353 355 354 356 354 353 353 359 358 352 351 355 347 342 335 339 347 346 344 352 348 356 352 343 333 324 327 305 274 269 263 259 259 245 278 259 267 240 183
356 354 353 353 353 352 352 353 350 352 353 353 354 359 1 356 355 350 347 340 336 337 345 352 350 359 354 358 351 343 331 345 354 303 320 308 261 248 273 269 256 271 263 264 221
352 352 352 352 351 350 350 351 349 351 353 357 359 358 1 0 355 346 336 354 339 344 346 8 5 3 350 345 344 349 341 352 354 13 352 274 296 47 342 250 226 234 255 268 240
351 350 349 351 349 348 350 350 351 351 354 358 5 3 4 356 349 352 349 352 352 339 358 6 353 355 356 345 349 1 344 346 350 345 348 254 324 353 333 280 241 221 231 268 258
347 347 348 348 346 347 350 351 349 351 355 4 9 8 356 353 358 357 357 358 354 349 13 8 342 350 357 354 338 335 336 333 332 344 354 285 312 317 302 300 215 202 226 225 224
345 343 348 346 344 348 350 352 351 352 359 32 4 5 355 356 355 1 359 5 1 351 24 36 313 353 349 344 339 334 336 345 328 1 347 321 323 287 289 272 191 206 209 232 216
342 343 346 345 346 347 349 349 350 350 15 18 11 3 359 354 356 1 7 4 9 21 81 19 351 352 338 346 332 334 336 348 330 298 322 314 330 239 283 95 145 190 204 217 216
341 343 345 342 344 345 347 348 349 354 77 17 5 4 3 359 360 5 1 6 13 23 50 37 355 349 351 343 343 9 350 341 331 330 4 347 312 87 83 352 129 132 175 209 213
337 342 343 341 342 346 348 349 351 355 104 14 2 1 360 1 1 3 12 8 11 23 21 6 5 2 359 13 354 342 345 336 334 346 331 332 194 21 14 49 82 54 187 186 191
334 343 341 341 345 345 348 350 351 11 45 351 357 357 356 4 3 13 11 18 22 17 26 21 11 359 7 355 358 337 336 317 323 338 326 333 68 357 11 67 19 22 160 169 178
334 341 338 340 345 345 348 352 3 24 15 346 348 349 355 8 4 9 15 21 34 45 46 49 23 7 2 8 16 351 6 46 72 340 297 10 132 22 12 347 350 20 44 174 178
334 338 333 336 342 345 349 357 19 49 339 339 346 350 2 1 4 8 13 24 28 15 18 21 10 10 2 13 15 14 22 1 28 10 274 33 73 51 12 10 355 349 6 167 169
330 333 330 335 338 343 352 9 45 354 359 349 347 348 359 360 357 5 11 22 27 21 18 8 10 9 8 11 340 12 8 39 291 335 321 32 40 70 7 15 24 21 6 335 180
324 327 326 330 338 343 356 11 26 9 357 354 347 354 357 1 357 2 15 24 19 16 25 5 14 27 10 20 15 359 1 10 275 305 292 36 27 324 1 20 37 24 27 35 171
319 322 324 329 339 342 5 29 24 14 1 3 11 0 353 355 4 13 12 15 18 13 16 1 333 3 13 33 27 23 11 22 2 2 328 83 50 354 354 6 24 32 22 43 170
316 317 322 327 336 346 3 26 22 11 6 6 4 1 355 352 359 9 11 2 5 14 8 359 358 9 16 30 16 16 20 16 335 1 334 356 60 360 355 0 13 25 32 55 142
310 313 318 323 334 346 1 15 12 11 7 9 2 4 359 354 356 3 355 4 2 2 2 360 348 343 2 8 349 24 21 17 358 334 329 291 94 352 356 5 17 28 29 49 98
301 309 316 327 330 342 353 8 10 8 15 12 6 5 358 357 346 355 351 348 355 360 6 1 351 345 351 1 332 9 10 8 1 4 11 9 347 346 359 20 26 30 30 66 90
286 305 313 321 330 337 347 352 3 13 10 3 6 2 354 352 357 353 355 345 348 359 0 355 355 6 280 300 315 323 350 6 19 30 344 16 339 358 4 12 23 36 29 38 84
272 286 299 305 320 332 338 339 1 13 3 5 1 356 354 356 353 350 356 351 343 352 353 358 347 337 334 23 347 303 336 350 14 19 29 343 355 0 358 360 13 26 31 56 117
264 280 291 298 308 318 331 334 354 8 1 5 7 352 351 355 355 343 346 350 353 347 351 359 349 349 67 29 355 305 337 357 2 4 2 7 14 360 360 356 6 22 30 39 81
261 271 288 291 295 304 303 311 329 352 358 7 356 347 355 354 347 338 338 341 336 343 3 2 359 353 128 329 310 44 5 11 355 347 354 7 356 355 3 3 8 21 25 29 55